Weather History for Trinidad, CO

Change the Weather History Date:

Sunday, February 24, 2013

  Actual Average Record
Temperature  
Mean Temperature 27 °F 37 °F  
Max Temperature 34 °F 52 °F 77 °F (1986)
Min Temperature 20 °F 22 °F -7 °F (1960)
Degree Days  
Heating Degree Days 38 28  
Month to date heating degree days 739 732  
Since 1 July heating degree days 3789 4014  
Cooling Degree Days 0 0  
Month to date cooling degree days 0 0  
Year to date cooling degree days 0 0  
Moisture  
Dew Point 22 °F    
Average Humidity 73    
Maximum Humidity 92    
Minimum Humidity 53    
Precipitation  
Precipitation T in 0.02 in 0.37 in (1991)
Month to date precipitation 0.30 0.40  
Year to date precipitation 0.38 0.80  
Sea Level Pressure  
Sea Level Pressure 29.84 in    
Wind  
Wind Speed 13 mph (North)    
Max Wind Speed 26 mph    
Max Gust Speed 36 mph    
Visibility 4 miles    
Events Snow    
T = Trace of Precipitation, MM = Missing Value Source: NWS Daily Summary

Daily Weather History Graph

Daily Weather History Graph

Search for Another Location

Airport:

Trip Planner

Search our weather history database for the weather conditions in past years. The results will help you decide how hot, cold, wet, or windy it might be!

Date:

Astronomy

Feb. 24, 2013 Rise Set
Actual Time 6:34 AM MST 5:46 PM MST
Civil Twilight 6:08 AM MST 6:13 PM MST
Nautical Twilight 5:38 AM MST 6:43 PM MST
Astronomical Twilight 5:08 AM MST 7:13 PM MST
Moon 5:00 PM MST (2/24) 5:32 AM MST (2/24)
Length of Visible Light 12h 04m
Length of Day
11h 11m
Waxing Gibbous, 99% of the Moon is Illuminated
Feb 24
Waxing Gibbous
Feb 25
Full
Mar 4
Last Quarter
Mar 11
New
Mar 19
First Quarter

Hourly Weather History & Observations

Time (MST) Temp. Windchill Dew Point Humidity Pressure Visibility Wind Dir Wind Speed Gust Speed Precip Events Conditions
12:54 AM 30.0 °F 20.5 °F 17.1 °F 59% 29.56 in 10.0 mi WSW 11.5 mph - N/A   Clear
1:54 AM 30.0 °F 21.1 °F 16.0 °F 56% 29.54 in 10.0 mi WSW 10.4 mph - N/A   Clear
2:54 AM 28.9 °F 22.8 °F 15.1 °F 56% 29.53 in 10.0 mi WSW 5.8 mph - N/A   Clear
3:54 AM 27.0 °F 18.7 °F 16.0 °F 63% 29.56 in 10.0 mi WSW 8.1 mph - N/A   Clear
4:54 AM 26.1 °F 14.5 °F 19.9 °F 78% 29.60 in 10.0 mi NNE 13.8 mph - N/A   Clear
6:54 AM 19.9 °F 10.1 °F 18.0 °F 92% 29.69 in 9.0 mi SSW 8.1 mph - N/A   Clear
7:54 AM 27.0 °F 23.0 °F 21.9 °F 81% 29.71 in 10.0 mi Variable 3.5 mph - N/A   Partly Cloudy
8:54 AM 30.0 °F 25.2 °F 21.9 °F 72% 29.73 in 10.0 mi WNW 4.6 mph - N/A   Scattered Clouds
9:38 AM 30.2 °F 22.6 °F 23.0 °F 75% 29.72 in 10.0 mi NNW 8.1 mph - N/A   Mostly Cloudy
9:54 AM 30.9 °F 22.8 °F 23.0 °F 72% 29.73 in 10.0 mi NNW 9.2 mph - N/A   Overcast
10:54 AM 33.1 °F 23.9 °F 23.0 °F 66% 29.73 in 10.0 mi NW 12.7 mph - N/A   Overcast
11:54 AM 32.0 °F 22.5 °F 23.0 °F 69% 29.74 in 10.0 mi North 12.7 mph - N/A   Overcast
12:54 PM 30.9 °F 19.4 °F 23.0 °F 72% 29.74 in 10.0 mi North 17.3 mph 23.0 mph N/A   Overcast
1:54 PM 30.0 °F 19.1 °F 24.1 °F 79% 29.76 in 5.0 mi North 15.0 mph - 0.00 in Snow Light Snow
2:27 PM 28.4 °F 17.5 °F 24.8 °F 86% 29.75 in 2.5 mi North 13.8 mph - 0.00 in Snow Light Snow
2:35 PM 28.4 °F 16.6 °F 24.8 °F 86% 29.75 in 4.0 mi North 16.1 mph 20.7 mph 0.00 in Snow Light Snow
2:54 PM 28.9 °F 16.1 °F 25.0 °F 85% 29.80 in 4.0 mi North 19.6 mph 23.0 mph 0.00 in Snow Light Snow
3:06 PM 28.4 °F 16.6 °F 24.8 °F 86% 29.77 in 2.5 mi NNE 16.1 mph - 0.00 in Snow Light Snow
3:24 PM 28.4 °F 17.5 °F 24.8 °F 86% 29.78 in 1.5 mi NNE 13.8 mph 23.0 mph 0.00 in Snow Light Snow
3:36 PM 28.4 °F 16.6 °F 24.8 °F 86% 29.79 in 1.2 mi NNE 16.1 mph - 0.00 in Snow Light Snow
3:54 PM 28.0 °F 14.6 °F 25.0 °F 88% 29.85 in 0.8 mi North 20.7 mph 26.5 mph 0.00 in Snow Light Snow
4:01 PM 28.4 °F 15.8 °F 24.8 °F 86% 29.81 in 1.2 mi North 18.4 mph 28.8 mph 0.00 in Snow Light Snow
4:08 PM 28.4 °F 15.8 °F 24.8 °F 86% 29.81 in 2.0 mi North 18.4 mph - 0.00 in Snow Light Snow
4:12 PM 28.4 °F 15.1 °F 24.8 °F 86% 29.82 in 2.0 mi North 20.7 mph 26.5 mph 0.00 in Snow Light Snow
4:21 PM 28.4 °F 18.0 °F 24.8 °F 86% 29.82 in 2.0 mi NNE 12.7 mph 24.2 mph 0.00 in Snow Light Snow
4:29 PM 28.4 °F 16.6 °F 24.8 °F 86% 29.83 in 2.5 mi NNE 16.1 mph 26.5 mph 0.00 in Snow Light Snow
4:36 PM 28.4 °F 16.6 °F 24.8 °F 86% 29.84 in 2.0 mi North 16.1 mph 26.5 mph 0.00 in Snow Light Snow
4:54 PM 27.0 °F 13.2 °F 24.1 °F 89% 29.91 in 1.2 mi NNE 20.7 mph 28.8 mph 0.00 in Snow Light Snow
5:08 PM 26.6 °F 15.7 °F 24.8 °F 93% 29.87 in 1.2 mi NNE 12.7 mph - 0.00 in Snow Light Snow
5:31 PM 26.6 °F 12.4 °F 21.2 °F 80% 29.87 in 3.0 mi North 21.9 mph 35.7 mph 0.00 in Snow Light Snow
5:54 PM 25.0 °F 11.3 °F 21.9 °F 88% 29.97 in 4.0 mi North 18.4 mph 28.8 mph 0.00 in Snow Light Snow
6:09 PM 24.8 °F 10.7 °F 21.2 °F 86% 29.90 in 4.0 mi North 19.6 mph 27.6 mph 0.00 in Snow Light Snow
6:49 PM 24.8 °F 11.5 °F 21.2 °F 86% 29.92 in 2.5 mi North 17.3 mph 25.3 mph 0.00 in Snow Light Snow
6:54 PM 24.1 °F 12.5 °F 21.0 °F 88% 30.03 in 2.5 mi North 12.7 mph 23.0 mph 0.00 in Snow Light Snow
7:05 PM 24.8 °F 12.9 °F 19.4 °F 80% 29.93 in 4.0 mi North 13.8 mph 24.2 mph 0.00 in Snow Light Snow
7:30 PM 24.8 °F 12.4 °F 21.2 °F 86% 29.94 in 5.0 mi North 15.0 mph 23.0 mph 0.00 in Snow Light Snow
7:49 PM 24.8 °F 10.3 °F 19.4 °F 80% 29.94 in 5.0 mi North 20.7 mph 26.5 mph 0.00 in Snow Light Snow
7:54 PM 24.1 °F 10.6 °F 19.9 °F 84% 30.01 in 6.0 mi North 17.3 mph 25.3 mph 0.00 in Snow Light Snow
8:14 PM 24.8 °F 12.4 °F 19.4 °F 80% 29.94 in 2.5 mi North 15.0 mph 24.2 mph 0.00 in Snow Light Snow
8:40 PM 24.8 °F 13.4 °F 19.4 °F 80% 29.95 in 1.8 mi NNW 12.7 mph 20.7 mph 0.00 in Snow Light Snow
8:54 PM 24.1 °F 12.0 °F 21.0 °F 88% 30.03 in 1.2 mi NNW 13.8 mph - 0.00 in Snow Light Snow
9:24 PM 24.8 °F 13.4 °F 21.2 °F 86% 29.97 in 1.0 mi NNW 12.7 mph 21.9 mph 0.00 in Snow Light Snow
9:49 PM 23.0 °F 9.6 °F 19.4 °F 86% 29.97 in 1.5 mi North 16.1 mph 26.5 mph 0.00 in Snow Light Snow
9:54 PM 23.0 °F 9.6 °F 19.9 °F 88% 30.03 in 1.5 mi North 16.1 mph 26.5 mph 0.00 in Snow Light Snow
10:11 PM 23.0 °F 8.7 °F 19.4 °F 86% 29.97 in 2.5 mi North 18.4 mph - 0.00 in Snow Light Snow
10:21 PM 23.0 °F 8.7 °F 19.4 °F 86% 29.97 in 2.5 mi North 18.4 mph 26.5 mph 0.00 in Snow Light Snow
10:30 PM 23.0 °F 8.3 °F 19.4 °F 86% 29.96 in 1.8 mi North 19.6 mph 27.6 mph 0.00 in Snow Light Snow
10:54 PM 23.0 °F 9.2 °F 19.9 °F 88% 30.02 in 1.2 mi North 17.3 mph 29.9 mph 0.00 in Snow Light Snow
11:28 PM 23.0 °F 10.1 °F 19.4 °F 86% 29.97 in 3.0 mi North 15.0 mph 24.2 mph 0.00 in Snow Light Snow
11:54 PM 21.9 °F 7.3 °F 18.0 °F 85% 30.04 in 5.0 mi North 18.4 mph 27.6 mph 0.00 in Snow Light Snow